This demonstration page uses our WeatherBlox Daily Observations layout. Learn more.

Left ArrowRight Arrow

36.17497, -115.13722

Hourly Observations for April 20, 2016

Temp ( °F °C ) Dew Point ( °F °C ) Humidity (%) Winds ( mph kmh ) Pressure ( in mb ) Visibility ( mi km ) Precip ( " mm )
12:53 am 00:53 Clear 67 19.4 31 -0.6 26 26 WNW 5 7 29.89 1012 10 16.0934 0 0
1:53 am 01:53 Clear 64 17.8 32 0 30 30 N 3 6 29.89 1012 10 16.0934 0 0
2:53 am 02:53 Clear 63 17.2 30 -1.1 29 29 NNW 7 11 29.89 1012 10 16.0934 0 0
3:53 am 03:53 Clear 62 16.7 30 -1.1 30 30 N 3 6 29.89 1012 10 16.0934 0 0
4:53 am 04:53 Clear 60 15.6 31 -0.6 33 33 NW 7 11 29.9 1013 10 16.0934 0 0
5:53 am 05:53 Clear 59 15 31 -0.6 35 35 N 5 7 29.91 1013 10 16.0934 0 0
6:53 am 06:53 Sunny 60 15.6 31 -0.6 33 33 N 3 6 29.92 1013 10 16.0934 0 0
7:53 am 07:53 Sunny 66 18.9 31 -0.6 27 27 Calm 29.94 1014 10 16.0934 0 0
8:53 am 08:53 Sunny 72 22.2 26 -3.3 18 18 ESE 7 11 29.94 1014 10 16.0934 0 0
9:53 am 09:53 Sunny 74 23.3 27 -2.8 17 17 SSE 5 7 29.95 1014 10 16.0934 0 0
10:53 am 10:53 Sunny 78 25.6 26 -3.3 15 15 SSE 8 13 29.94 1014 10 16.0934 0 0
11:53 am 11:53 Sunny 83 28.3 23 -5 11 11 ESE 7 11 29.92 1013 10 16.0934 0 0
12:53 pm 12:53 Sunny 86 30 22 -5.6 9 9 SSE 14 22 29.89 1012 10 16.0934 0 0
1:35 pm 13:35 Sunny 89 31.7 16 -8.9 7 7 SW 15 24 29.71 1006 10 16.0934 0 0
1:53 pm 13:53 Sunny 89 31.7 15 -9.4 6 6 SSW 16 26 29.87 1012 10 16.0934 0 0
2:53 pm 14:53 Sunny 90 32.2 13 -10.6 6 6 S 15 24 29.85 1011 10 16.0934 0 0
3:53 pm 15:53 Sunny 90 32.2 11 -11.7 5 5 SW 15 24 29.83 1010 10 16.0934 0 0
4:53 pm 16:53 Sunny 89 31.7 10 -12.2 5 5 SW 13 20 29.82 1010 10 16.0934 0 0
5:53 pm 17:53 Sunny 88 31.1 8 -13.3 5 5 SSW 12 19 29.82 1010 10 16.0934 0 0
6:53 pm 18:53 Sunny 86 30 6 -14.4 5 5 WSW 10 17 29.83 1010 10 16.0934 0 0
7:53 pm 19:53 Clear 83 28.3 7 -13.9 5 5 SSW 8 13 29.84 1011 10 16.0934 0 0
8:53 pm 20:53 Clear 80 26.7 11 -11.7 7 7 SW 8 13 29.84 1011 10 16.0934 0 0
9:53 pm 21:53 Clear 78 25.6 12 -11.1 8 8 SW 8 13 29.86 1011 10 16.0934 0 0
10:53 pm 22:53 Clear 73 22.8 16 -8.9 11 11 Calm 29.86 1011 10 16.0934 0 0
11:53 pm 23:53 Clear 73 22.8 16 -8.9 11 11 WNW 3 6 29.86 1011 10 16.0934 0 0

Powered by AerisWeather